Regional Weather Roundup
Issued by NWS

Home | Current Version | Previous Version | Text Only | Print | Product List | Glossary Off
Versions: 1 2 3 4 5 6 7 8 9 10 11 12 13 14 15 16 17 18 19 20 21 22 23 24 25 26 27 28 29 30 31 32 33 34 35 36 37 38 39 40 41 42 43 44 45 46 47 48 49 50

000
ASUS43 KLMK 241102
RWRKY
KENTUCKY REGIONAL WEATHER ROUNDUP
NATIONAL WEATHER SERVICE LOUISVILLE KY
700 AM EDT SAT JUN 24 2017

NOTE "FAIR" INDICATES FEW OR NO CLOUDS BELOW 12,000 FEET
WITH NO SIGNIFICANT WEATHER AND/OR OBSTRUCTIONS TO VISIBILITY.

KYZ001>023-026-027-061>063-070>075-241200-
WESTERN AND SOUTH CENTRAL KENTUCKY

CITY           SKY/WX    TMP DP  RH WIND       PRES   REMARKS
PADUCAH        MOCLDY    66  58  75 NW5       30.02R
HENDERSON      PTCLDY    64  60  87 NW3       30.00
OWENSBORO      NOT AVBL
HOPKINSVILLE   MOCLDY    68  66  93 NW6       30.00R
BOWLING GREEN  CLEAR     67  67 100 W3        29.98R
GLASGOW        NOT AVBL
$$

KYZ024-025-028>034-038-045-046-053-241200-
NORTH CENTRAL KENTUCKY

CITY           SKY/WX    TMP DP  RH WIND       PRES   REMARKS
LOUISVILLE/SDF PTCLDY    67  63  87 NW6       29.95R
LOUISVILLE/LOU PTCLDY    65  65 100 CALM      29.96R
FORT KNOX      PTCLDY    63  63 100 NW6       29.96R
$$

KYZ035>037-039>044-047>052-055>060-089>105-241200-
NORTHEAST KENTUCKY

CITY           SKY/WX    TMP DP  RH WIND       PRES   REMARKS
LEXINGTON      FOG       64  63  96 S3        29.95R VSB 1/4
COVINGTON      PTCLDY    63  62  97 W8        29.93R
FRANKFORT      PTCLDY    65  62  90 CALM      29.94R
$$

KYZ054-064>069-076>088-106>120-241200-
SOUTHEAST KENTUCKY

CITY           SKY/WX    TMP DP  RH WIND       PRES   REMARKS
JACKSON        FOG       66  65  96 CALM      29.95R VSB 1/2
LONDON         CLOUDY    69  67  93 CALM      29.96R
SOMERSET       MOCLDY    68  68 100 CALM      29.98R
MIDDLESBORO    CLOUDY    67  67 100 CALM      29.97R
MONTICELLO     PTSUNNY   69  68  96 NW5       29.99R
$$





USA.gov is the U.S. government's official web portal to all federal, state and local government web resources and services.